This demonstration page uses our WeatherBlox Daily Observations layout. Learn more.

Left ArrowRight Arrow

Hourly Observations for August 2, 2019

Temp ( °F °C ) Dew Point ( °F °C ) Humidity (%) Winds ( mph kmh ) Pressure ( in mb ) Visibility ( mi km ) Precip ( " mm )
12:59 am 00:59 Partly Cloudy 75 23.9 70 21.1 84 84 SE 3 6 30.11 1020 9 14 0.00 0.00
1:59 am 01:59 Mostly Cloudy 76 24.4 71 21.7 85 85 ENE 5 7 30.10 1019 9 14 0.00 0.00
2:43 am 02:43 Mostly Cloudy with Thunderstorms 76 24.4 71 21.7 85 85 SSE 3 6 30.09 1019 9 14 0.00 0.00
2:59 am 02:59 Mostly Cloudy with Thunderstorms 76 24.4 71 21.7 85 85 SSE 5 7 30.09 1019 9 14 0.00 0.00
3:11 am 03:11 Mostly Cloudy with Thunderstorms 76 24.4 71 21.7 85 85 S 5 7 30.09 1019 9 14 0.00 0.00
3:44 am 03:44 Cloudy with Thunderstorms 76 24.4 72 22.2 88 88 Calm 30.08 1019 9 14 0.00 0.00
3:59 am 03:59 Mostly Cloudy with Thunderstorms 77 25 72 22.2 85 85 E 5 7 30.08 1019 9 14 0.00 0.00
4:59 am 04:59 Cloudy 75 23.9 68 20 79 79 NNE 13 20 30.10 1019 10 16 0.00 0.00
5:21 am 05:21 Cloudy with Thunderstorms 76 24.4 67 19.4 74 74 N 7 11 30.10 1019 9 14 0.00 0.00
5:48 am 05:48 Mostly Cloudy with Thunderstorms 74 23.3 67 19.4 79 79 NNE 6 9 30.09 1019 10 16 0.00 0.00
5:59 am 05:59 Cloudy with Thunderstorms 74 23.3 67 19.4 79 79 E 6 9 30.09 1019 10 16 0.00 0.00
6:16 am 06:16 Cloudy 74 23.3 68 20 82 82 ENE 3 6 30.09 1019 9 14 0.00 0.00
6:59 am 06:59 Mostly Cloudy 74 23.3 69 20.6 85 85 Calm 30.07 1018 8 13 0.00 0.00
7:59 am 07:59 Cloudy 76 24.4 70 21.1 82 82 NE 3 6 30.09 1019 7 11 0.00 0.00
8:59 am 08:59 Cloudy 77 25 71 21.7 82 82 ENE 9 15 30.11 1020 8 13 0.00 0.00
9:59 am 09:59 Cloudy 77 25 71 21.7 82 82 NNE 14 22 30.14 1021 8 13 0.00 0.00
10:09 am 10:09 Cloudy 77 25 72 22.2 85 85 N 15 24 30.14 1021 8 13 0.00 0.00
10:20 am 10:20 Cloudy 77 25 71 21.7 82 82 N 15 24 30.14 1021 8 13 0.00 0.00
10:59 am 10:59 Cloudy 76 24.4 72 22.2 88 88 NNE 12 19 30.14 1021 8 13 0.00 0.00
11:25 am 11:25 Cloudy 77 25 73 22.8 88 88 NE 9 15 30.15 1021 7 11 0.00 0.00
11:59 am 11:59 Cloudy 79 26.1 74 23.3 85 85 NE 8 13 30.14 1021 7 11 0.00 0.00
12:59 pm 12:59 Mostly Cloudy 81 27.2 73 22.8 77 77 NNE 8 13 30.13 1020 8 13 0.00 0.00
1:59 pm 13:59 Cloudy 79 26.1 73 22.8 82 82 E 7 11 30.12 1020 8 13 0.00 0.00
2:59 pm 14:59 Cloudy 79 26.1 73 22.8 82 82 E 8 13 30.09 1019 8 13 0.00 0.00
3:59 pm 15:59 Mostly Cloudy 82 27.8 72 22.2 72 72 SE 8 13 30.07 1018 8 13 0.00 0.00
4:59 pm 16:59 Cloudy 81 27.2 70 21.1 69 69 SSE 9 15 30.08 1019 9 14 0.00 0.00
5:59 pm 17:59 Cloudy 81 27.2 71 21.7 72 72 SE 7 11 30.07 1018 8 13 0.00 0.00
6:59 pm 18:59 Mostly Cloudy 80 26.7 70 21.1 71 71 SSE 3 6 30.07 1018 9 14 0.00 0.00
7:59 pm 19:59 Mostly Cloudy 78 25.6 71 21.7 79 79 SE 5 7 30.06 1018 8 13 0.00 0.00
8:59 pm 20:59 Mostly Cloudy 76 24.4 72 22.2 88 88 SSE 3 6 30.07 1018 9 14 0.00 0.00
9:59 pm 21:59 Mostly Cloudy 75 23.9 70 21.1 84 84 Calm 30.10 1019 9 14 0.00 0.00
10:59 pm 22:59 Partly Cloudy 73 22.8 70 21.1 90 90 E 3 6 30.09 1019 9 14 0.00 0.00
11:59 pm 23:59 Cloudy 75 23.9 70 21.1 84 84 SE 5 7 30.08 1019 9 14 0.00 0.00

Powered by AerisWeather